Run Northumberland Coquet Half Marathon
Skip Navigation Links
03 July 2016
HyperLink
Page 1 of 3 (149 items)
[1]23
Pos
Race No
Fav
Share
Print
Name
Time
Net Time
Category
Cat Pos
Gender
Gen Pos
Club
Pace
1358David GREEN1:17:401:17:40SEN1Male1Unattached5:55 m/hr
293Craig BRADSHAW1:21:281:21:27SEN2Male2Tynedale Harriers & AC6:13 m/hr
3486Andrew MELLOR1:21:431:21:43SEN3Male3Unattached6:14 m/hr
4523Steve RANKIN1:23:221:23:21SEN4Male4Sunderland Harriers & AC6:21 m/hr
5687David WAKEFIELD1:24:031:24:02V451Male5South Shields Harriers & AC6:24 m/hr
6515Steve PATTERSON1:31:071:31:05SEN5Male6Morpeth Harriers6:57 m/hr
725george ARTHUR1:31:521:31:51V501Male7South Shields Harriers & AC7:00 m/hr
8501David MYERS1:35:471:35:45V401Male8South Shields Harriers & AC7:18 m/hr
9728Mel Ellis1:35:551:35:52SEN1Female1Tweed Striders7:19 m/hr
10703Richard Johnson1:35:551:35:52SEN6Male9Alnwick Harriers7:19 m/hr
11413Andrew HEPPELL1:35:591:35:50SEN7Male10Unattached7:19 m/hr
12448Paul Luzanycia1:36:251:36:23V551Male11North East Veterans AC7:21 m/hr
13684Danny WADE1:39:071:39:02V402Male12Low Fell RC7:33 m/hr
14219Richard CONDER1:39:421:39:38SEN8Male13Low Fell Running Club7:36 m/hr
15695Nicholas WRIGHT1:39:441:39:44V552Male14Unattached7:36 m/hr
16422Tamsin IMBER1:40:551:40:50V401Female2Elvet Striders7:42 m/hr
17143Michael CAIRNS1:41:111:41:06SEN9Male15Alnwick Harriers7:43 m/hr
18692Keith WEST1:41:271:41:18V553Male16Unattached7:44 m/hr
1913Richard ARNOT1:42:021:41:57V452Male17Heaton Harriers & AC7:47 m/hr
20228Lee DAGLISH1:42:531:42:51SEN10Male18Unattached7:51 m/hr
21425Chris JENNINGS1:43:281:43:16SEN11Male19Unattached7:53 m/hr
22640Jiri STURALA1:43:541:43:44SEN12Male20Unattached7:55 m/hr
23472David MATTHEW1:44:001:43:53SEN13Male21Unattached7:56 m/hr
24311Barry FROST1:44:011:43:58V554Male22Rothbury Runners7:56 m/hr
25589Will STAGEMAN1:44:051:44:02SEN14Male23Unattached7:56 m/hr
26704Keith Thomson1:44:191:44:11SEN15Male24 7:57 m/hr
27567Matthew SMALL1:44:391:44:27SEN16Male25Unattached7:59 m/hr
28128Pam BROWN1:46:041:45:57SEN2Female3Wooler R C8:05 m/hr
29315Callum GARRICK1:46:241:46:21SEN17Male26Unattached8:07 m/hr
30331David GARRICK1:46:241:46:21V453Male27Unattached8:07 m/hr
31451Graeme MACGREGOR1:47:331:47:30V502Male28Unattached8:12 m/hr
32697Iain Nicholson1:47:511:47:38V454Male29 8:13 m/hr
33520Jack PIKE1:49:011:48:46SEN18Male30Unattached8:19 m/hr
34430Philip JOHNSTON1:49:481:49:35SEN19Male31Allen Valley Striders8:22 m/hr
35441Jean LATHAM1:49:481:49:42V402Female4Unattached8:22 m/hr
36483Graeme MEARNS1:51:291:51:22SEN20Male32Northern Front Runners8:30 m/hr
37671Mark TAIT1:52:021:51:54V455Male33Unattached8:33 m/hr
38693nick WINSLOW1:52:491:52:46V555Male34Ponteland Runners8:36 m/hr
39592Mel STEER1:52:531:52:43V451Female5Alnwick Harriers8:37 m/hr
40514Andrew PATCHETT1:52:570V403Male35Unattached8:37 m/hr
41657Mark SUMMERS1:53:201:53:14V456Male36Wallsend Harriers & AC8:39 m/hr
42279Ruth DRAKE1:54:561:54:49V351Female6Unattached8:46 m/hr
43682Laura THOMSON1:56:071:55:59SEN3Female7Unattached8:51 m/hr
44301Lee EVANS1:56:301:56:30SEN21Male37Unattached8:53 m/hr
45302Daniel FARNELL1:56:301:56:30SEN22Male38Unattached8:53 m/hr
46414David HERRING1:56:351:56:27V404Male39Gateshead Harriers8:53 m/hr
47475Suzanne MAVIR1:56:361:56:32V352Female8Unattached8:54 m/hr
48179Fiona CAPLE1:56:451:56:39V452Female9Unattached8:54 m/hr
49705Roisin Mcbride1:56:541:56:47SEN4Female10Unattached8:55 m/hr
50508Gillian NICHOL1:57:021:56:54V403Female11South Shields Harriers & AC8:56 m/hr
Page 1 of 3 (149 items)
[1]23

HyperLink Copyright (c) G Vincent, 2016